[[{"header":{"parameterUnit":"m.s-1","parameterCategory":1,"la1":30.2991,"la2":30.254,"lo1":-89.0895,"lo2":-89.0444,"dy":0.0017,"dx":0.0017,"nx":28,"ny":28,"refTime":"2024-10-15T03:00:00:Z","depth":0,"parameterNumber":2,"parameterNumberName":"U-component_of_WINDS"},"data":[0,0,0,0,0,0,0,0,0,0,0,0,0,0,0,0,0,0,0,0,0,0,0,0,0,0,0,0,0,0,0,0,0,0,0,0,0,0,0,0,0,0,0,0,0,0,0,0,0,0,0,0,0,0,0,0,0,0,-4.9776,-4.9777,0,-4.9829,-4.983,-4.983,-4.9742,-4.9739,-4.9736,-4.9733,-4.9785,-4.9789,-4.9793,0,0,0,0,0,0,0,0,0,0,0,0,0,-4.9596,-4.96,-4.9776,-4.9777,-4.9778,-4.9829,-4.983,-4.9831,-4.9742,-4.9739,-4.9735,-4.9731,-4.9784,-4.9789,-4.9794,0,0,0,0,0,0,0,0,0,0,0,0,0,-4.9664,-4.9601,-4.9776,-4.974,-4.9737,-4.9829,-4.983,-4.9831,-4.9743,-4.9738,-4.9734,-4.973,-4.9782,-4.9788,-4.9795,-4.9924,0,0,-4.9814,-4.9817,0,0,0,0,0,0,0,0,-4.966,-4.9671,-4.9744,-4.9742,-4.9739,-4.9774,-4.9785,-4.9862,-4.9744,-4.9741,-4.9733,-4.9727,-4.9785,-4.9791,-4.9811,-4.9927,-4.9929,-4.9814,-4.9818,-4.9821,-4.9823,0,0,0,0,0,0,0,-4.9656,-4.9668,-4.9797,-4.9746,-4.9743,-4.972,-4.9725,-4.98,-4.9788,-4.9741,-4.9734,-4.9742,-4.9783,-4.9805,-4.9811,-4.993,-4.9814,-4.982,-4.9824,-4.9826,-5.0154,-5.0159,0,0,0,0,0,0,-4.9656,-4.9665,-4.9795,-4.9799,-4.9688,-4.9727,-4.9732,-4.9768,-4.9787,-4.9785,-4.9746,-4.9738,-4.9796,-4.9804,-4.9813,-4.9966,-4.9821,-4.9827,-4.983,-5.0149,-5.0155,-5.016,0,0,0,0,0,0,-4.9652,-4.9668,-4.9793,-4.973,-4.9744,-4.9735,-4.9775,-4.9771,-4.9793,-4.979,-4.9788,-4.9771,-4.9793,-4.9804,-4.9897,-4.9967,-4.983,-4.9835,-5.0143,-5.0151,-5.0158,-5.0273,0,0,0,0,0,0,-4.9648,-4.9668,-4.9718,-4.9732,-4.9748,-4.9878,-4.978,-4.9775,-4.9804,-4.9794,-4.9813,-4.9812,-4.979,-4.9888,-4.9903,-4.9973,-4.984,-5.0137,-5.0147,-5.0155,-5.0263,-5.0284,-5.0301,0,0,0,0,0,-4.9642,-4.9748,-4.9721,-4.9737,-4.981,-4.9882,-4.9891,-4.9865,-4.981,-4.986,-4.9858,-4.9811,-4.9956,-4.9899,-4.9915,-4.9987,-5.0133,-5.0144,-5.0155,-5.0255,-5.028,-5.0301,0,0,0,0,0,0,-4.9741,-4.9749,-4.9719,-4.9833,-4.9858,-4.9867,-4.9929,-4.9892,-4.9933,-4.9921,-4.9886,-4.9891,-4.9992,-4.9998,-4.9934,-5.0113,-5.0035,-5.005,-5.0106,-5.0129,-5.0148,-5.0145,-4.9846,0,0,0,0,0,-4.9776,-4.9835,-4.9838,-4.9938,-4.9952,-4.9939,-4.9969,-4.9947,-4.9971,-4.998,-4.9985,-5.001,-5.0061,-5.0095,-5.0142,-5.0263,-5.0266,-5.0321,-5.034,-5.0356,-5.0369,-5.0434,-5.0458,-5.0197,-5.0197,-5.0196,0,0,-4.9849,-4.9861,-4.99,-4.9959,-4.9975,-5.0036,-4.9948,-5.0016,-5.0061,-4.999,-5.0079,-5.0084,-5.0108,-5.0217,-5.0264,-5.0225,-5.0442,-5.037,-5.0382,-5.0387,-5.0448,-5.0473,-5.0495,-5.0204,-5.0203,-5.0202,0,0,-5.0014,-5.0029,-5.0114,-5.0133,-5.0159,-5.0149,-5.017,-5.0185,-5.0186,-5.0274,-5.0223,-5.0275,-5.0363,-5.0383,-5.0405,-5.0577,-5.0535,-5.0593,-5.0693,-5.0756,-5.0777,-5.0795,-5.0857,-5.0879,-5.0606,-5.0607,-5.0607,0,-5.0102,-5.0193,-5.0163,-5.0235,-5.0262,-5.0201,-5.0287,-5.0306,-5.0346,-5.0366,-5.0322,-5.0432,-5.0444,-5.0556,-5.0598,-5.0617,-5.064,-5.0591,-5.0776,-5.0794,-5.0811,-5.0869,-5.0893,-5.0614,-5.0613,-5.0612,-5.0611,0,-5.03,-5.0363,-5.0428,-5.047,-5.0504,-5.0583,-5.0564,-5.0602,-5.0576,-5.0571,-5.0662,-5.0674,-5.0723,-5.0747,-5.0723,-5.0856,-5.0831,-5.0782,-5.0703,-5.0843,-5.0898,-5.092,-5.0623,-5.0621,-5.0619,-5.0617,0,0,-5.053,-5.0553,-5.0578,-5.0596,-5.062,-5.0668,-5.0743,-5.0791,-5.0825,-5.0854,-5.0917,-5.0993,-5.0948,-5.0972,-5.0949,-5.1005,-5.1141,-5.0949,-5.0949,-5.0985,-5.1289,-5.1326,-5.1353,-5.1113,-5.1117,-5.112,-5.1287,0,-5.0694,-5.0826,-5.0801,-5.0928,-5.0987,-5.093,-5.0995,-5.1017,-5.1014,-5.1062,-5.1057,-5.1112,-5.1048,-5.1063,-5.1116,-5.1114,-5.1202,-5.1101,-5.117,-5.1173,-5.1167,-5.1381,-5.1421,-5.1578,-5.1308,-5.1311,-5.1314,0,-5.0905,-5.0943,-5.1077,-5.1092,-5.1115,-5.1175,-5.1217,-5.1264,-5.1287,-5.128,-5.1308,-5.1274,-5.1348,-5.1268,-5.1369,-5.1301,-5.1328,-5.1331,-5.1336,-5.1342,-5.1253,-5.1394,-5.1627,-5.1651,-5.1347,-5.1345,-5.1342,0,-5.106,-5.1145,-5.1236,-5.1253,-5.1273,-5.1316,-5.1326,-5.1344,-5.1375,-5.1411,-5.143,-5.1474,-5.1498,-5.1533,-5.1511,-5.1455,-5.1617,-5.1534,-5.1613,-5.1614,-5.1651,-5.1649,-5.1893,-5.1667,-5.1667,-5.1666,-5.1666,0,-5.1247,-5.1332,-5.1306,-5.1363,-5.1455,-5.1425,-5.1517,-5.152,-5.1537,-5.1592,-5.1544,-5.1597,-5.1565,-5.1615,-5.1599,-5.1685,-5.1696,-5.1693,-5.1688,-5.1698,-5.1699,-5.1716,-5.1705,-5.1673,-5.1671,-5.167,-5.1669,0,-5.1437,-5.1424,-5.1519,-5.153,-5.1535,-5.1603,-5.1611,-5.1663,-5.1656,-5.1727,-5.1741,-5.173,-5.1786,-5.1768,-5.1828,-5.1817,-5.1928,-5.1908,-5.1921,-5.1916,-5.1996,-5.199,-5.226,-5.2294,-5.2046,-5.2048,-5.205,0,-5.1559,-5.1622,-5.164,-5.1674,-5.1688,-5.1743,-5.1774,-5.1746,-5.178,-5.1811,-5.1859,-5.1911,-5.1952,-5.2044,-5.2041,-5.2086,-5.2068,-5.2159,-5.2074,-5.2082,-5.207,-5.2067,-5.2073,-5.2177,-5.2179,-5.2182,-5.2184,0,-5.1775,-5.1765,-5.1812,-5.1857,-5.1895,-5.1929,-5.1958,-5.1988,-5.1962,-5.2002,-5.2059,-5.2091,-5.2152,-5.2205,-5.2246,-5.2255,-5.2216,-5.221,-5.2231,-5.2243,-5.2248,-5.2247,-5.1968,-5.2204,-5.2202,-5.2201,-5.22,-5.2199,-5.1935,-5.1989,-5.201,-5.2064,-5.2083,-5.2111,-5.2161,-5.216,-5.2207,-5.2256,-5.2236,-5.2302,-5.2322,-5.2374,-5.2389,-5.2439,-5.2404,-5.2434,-5.2442,-5.245,-5.2461,-5.2239,-5.2446,-5.2446,-5.2445,-5.2445,-5.2444,0,-5.2149,-5.216,-5.221,-5.2253,-5.2295,-5.2254,-5.2284,-5.2321,-5.2381,-5.2403,-5.2444,-5.251,-5.256,-5.2561,-5.2607,-5.2648,-5.2631,-5.2661,-5.2658,-5.2661,-5.2489,-5.2467,-5.2674,-5.2674,-5.2674,-5.2674,-5.2674,-5.2674,-5.2266,-5.2356,-5.2348,-5.2446,-5.2456,-5.2521,-5.2542,-5.2567,-5.2585,-5.2661,-5.2703,-5.2703,-5.2717,-5.2764,-5.2808,-5.2807,-5.2826,-5.2864,-5.2856,-5.2696,-5.2673,-5.2651,-5.263,-5.2868,-5.2868,-5.3023,-5.3025,-5.3026]},{"header":{"parameterUnit":"m.s-1","parameterCategory":1,"la1":30.2991,"la2":30.254,"lo1":-89.0895,"lo2":-89.0444,"dy":0.0017,"dx":0.0017,"nx":28,"ny":28,"refTime":"2024-10-15T03:00:00:Z","depth":0,"parameterNumber":3,"parameterNumberName":"V-component_of_WINDS"},"data":[0,0,0,0,0,0,0,0,0,0,0,0,0,0,0,0,0,0,0,0,0,0,0,0,0,0,0,0,0,0,0,0,0,0,0,0,0,0,0,0,0,0,0,0,0,0,0,0,0,0,0,0,0,0,0,0,0,0,-7.5074,-7.5074,0,-7.5126,-7.5127,-7.5128,-7.5037,-7.5034,-7.5031,-7.5028,-7.5077,-7.5081,-7.5086,0,0,0,0,0,0,0,0,0,0,0,0,0,-7.4889,-7.4893,-7.5073,-7.5074,-7.5075,-7.5126,-7.5127,-7.5128,-7.5038,-7.5034,-7.503,-7.5027,-7.5076,-7.5081,-7.5086,0,0,0,0,0,0,0,0,0,0,0,0,0,-7.4958,-7.4894,-7.5073,-7.5036,-7.5033,-7.5126,-7.5127,-7.5128,-7.5039,-7.5034,-7.5029,-7.5025,-7.5074,-7.508,-7.5087,-7.5216,0,0,-7.5106,-7.5108,0,0,0,0,0,0,0,0,-7.4954,-7.4965,-7.5041,-7.5039,-7.5036,-7.5071,-7.508,-7.5157,-7.504,-7.5037,-7.5028,-7.5023,-7.5079,-7.5084,-7.5104,-7.5219,-7.5221,-7.5106,-7.511,-7.5113,-7.5114,0,0,0,0,0,0,0,-7.495,-7.4962,-7.5094,-7.5042,-7.5039,-7.5015,-7.502,-7.5094,-7.5082,-7.5036,-7.503,-7.5038,-7.5076,-7.5098,-7.5104,-7.5222,-7.5106,-7.5112,-7.5115,-7.5118,-7.5445,-7.5449,0,0,0,0,0,0,-7.495,-7.4959,-7.5092,-7.5096,-7.4983,-7.5022,-7.5027,-7.5064,-7.5081,-7.508,-7.5042,-7.5033,-7.509,-7.5097,-7.5106,-7.5259,-7.5113,-7.5118,-7.5122,-7.544,-7.5446,-7.5451,0,0,0,0,0,0,-7.4946,-7.4963,-7.509,-7.5026,-7.504,-7.503,-7.5072,-7.5068,-7.5089,-7.5085,-7.5082,-7.5067,-7.5086,-7.5097,-7.519,-7.5259,-7.5121,-7.5127,-7.5434,-7.5442,-7.5448,-7.5566,0,0,0,0,0,0,-7.4942,-7.4962,-7.5013,-7.5028,-7.5044,-7.5176,-7.5076,-7.5072,-7.5101,-7.5091,-7.5108,-7.5106,-7.5084,-7.5181,-7.5196,-7.5265,-7.5132,-7.5428,-7.5437,-7.5446,-7.5556,-7.5577,-7.5594,0,0,0,0,0,-7.4935,-7.5043,-7.5016,-7.5032,-7.5107,-7.518,-7.5189,-7.5162,-7.5107,-7.5157,-7.5154,-7.5106,-7.5249,-7.5191,-7.5207,-7.528,-7.5423,-7.5435,-7.5445,-7.5547,-7.5573,-7.5594,0,0,0,0,0,0,-7.5034,-7.5044,-7.5014,-7.513,-7.5155,-7.5164,-7.5227,-7.519,-7.523,-7.5218,-7.5181,-7.5186,-7.5286,-7.5292,-7.5227,-7.5406,-7.5327,-7.5342,-7.5399,-7.5423,-7.5441,-7.5438,-7.5137,0,0,0,0,0,-7.507,-7.513,-7.5134,-7.5236,-7.525,-7.5237,-7.5267,-7.5245,-7.5268,-7.5278,-7.5282,-7.5305,-7.5355,-7.5389,-7.5435,-7.5556,-7.5558,-7.5614,-7.5633,-7.5648,-7.5662,-7.5726,-7.575,-7.5488,-7.5488,-7.5487,0,0,-7.5144,-7.5156,-7.5196,-7.5256,-7.5273,-7.5334,-7.5246,-7.5315,-7.5359,-7.5287,-7.5376,-7.538,-7.5403,-7.5511,-7.5558,-7.5519,-7.5735,-7.5663,-7.5675,-7.568,-7.574,-7.5765,-7.5787,-7.5495,-7.5494,-7.5493,0,0,-7.531,-7.5326,-7.5412,-7.5431,-7.5458,-7.5448,-7.5469,-7.5485,-7.5485,-7.5573,-7.5521,-7.5572,-7.566,-7.5679,-7.57,-7.5873,-7.5829,-7.5888,-7.5989,-7.6051,-7.6072,-7.609,-7.6152,-7.6174,-7.5902,-7.5902,-7.5902,0,-7.5397,-7.549,-7.5461,-7.5534,-7.5561,-7.5501,-7.5587,-7.5606,-7.5646,-7.5666,-7.5621,-7.5729,-7.5741,-7.5852,-7.5894,-7.5913,-7.5935,-7.5886,-7.6072,-7.609,-7.6106,-7.6164,-7.6188,-7.5909,-7.5908,-7.5907,-7.5907,0,-7.5596,-7.5661,-7.5727,-7.5769,-7.5804,-7.5883,-7.5865,-7.5903,-7.5877,-7.5872,-7.5962,-7.5974,-7.6021,-7.6045,-7.602,-7.6153,-7.6127,-7.6078,-7.5998,-7.6139,-7.6193,-7.6215,-7.5919,-7.5916,-7.5914,-7.5913,0,0,-7.5826,-7.5852,-7.5877,-7.5895,-7.5921,-7.5969,-7.6045,-7.6093,-7.6126,-7.6155,-7.6217,-7.6292,-7.6247,-7.6271,-7.6247,-7.6302,-7.6438,-7.6246,-7.6246,-7.6281,-7.6585,-7.6622,-7.6649,-7.641,-7.6414,-7.6417,-7.6583,0,-7.5991,-7.6124,-7.61,-7.6229,-7.6287,-7.6231,-7.6296,-7.6318,-7.6315,-7.6363,-7.6358,-7.6412,-7.6348,-7.6362,-7.6414,-7.6411,-7.6499,-7.6398,-7.6466,-7.6469,-7.6462,-7.6677,-7.6716,-7.6872,-7.6604,-7.6607,-7.661,0,-7.6201,-7.6241,-7.6376,-7.6392,-7.6416,-7.6476,-7.6518,-7.6565,-7.6587,-7.6581,-7.6608,-7.6574,-7.6647,-7.6567,-7.6667,-7.6599,-7.6625,-7.6627,-7.6633,-7.6638,-7.6548,-7.6688,-7.6921,-7.6945,-7.6643,-7.664,-7.6638,0,-7.6356,-7.6442,-7.6534,-7.6552,-7.6573,-7.6616,-7.6627,-7.6645,-7.6676,-7.6711,-7.673,-7.6774,-7.6797,-7.6831,-7.6809,-7.6752,-7.6912,-7.683,-7.6908,-7.6909,-7.6945,-7.6943,-7.7186,-7.6962,-7.6961,-7.6961,-7.696,0,-7.6543,-7.6628,-7.6604,-7.6661,-7.6754,-7.6724,-7.6817,-7.682,-7.6837,-7.6892,-7.6844,-7.6896,-7.6864,-7.6913,-7.6896,-7.6981,-7.6992,-7.6988,-7.6982,-7.6992,-7.6993,-7.7009,-7.6997,-7.6967,-7.6965,-7.6964,-7.6963,0,-7.6731,-7.6719,-7.6816,-7.6828,-7.6833,-7.6901,-7.6911,-7.6962,-7.6956,-7.7026,-7.704,-7.7029,-7.7084,-7.7066,-7.7124,-7.7112,-7.7221,-7.7201,-7.7215,-7.721,-7.7289,-7.7282,-7.7551,-7.7584,-7.7339,-7.7341,-7.7343,0,-7.6851,-7.6916,-7.6936,-7.697,-7.6985,-7.704,-7.7072,-7.7044,-7.7078,-7.7109,-7.7157,-7.7209,-7.7249,-7.7339,-7.7335,-7.738,-7.7361,-7.7452,-7.7367,-7.7375,-7.7362,-7.7359,-7.7365,-7.7469,-7.7472,-7.7474,-7.7476,0,-7.7066,-7.7057,-7.7105,-7.7151,-7.719,-7.7224,-7.7254,-7.7284,-7.7259,-7.7299,-7.7356,-7.7388,-7.7448,-7.75,-7.754,-7.7548,-7.7508,-7.7503,-7.7523,-7.7534,-7.7539,-7.7538,-7.7261,-7.7497,-7.7495,-7.7493,-7.7492,-7.7491,-7.7224,-7.7279,-7.7302,-7.7356,-7.7376,-7.7405,-7.7455,-7.7455,-7.7502,-7.7551,-7.7531,-7.7597,-7.7617,-7.7667,-7.7681,-7.7731,-7.7695,-7.7725,-7.7732,-7.774,-7.7751,-7.7532,-7.7738,-7.7737,-7.7736,-7.7736,-7.7735,0,-7.7436,-7.7448,-7.7499,-7.7543,-7.7586,-7.7546,-7.7577,-7.7615,-7.7674,-7.7697,-7.7737,-7.7803,-7.7852,-7.7852,-7.7898,-7.7938,-7.792,-7.795,-7.7947,-7.795,-7.778,-7.7758,-7.7964,-7.7964,-7.7964,-7.7964,-7.7964,-7.7964,-7.7552,-7.7642,-7.7636,-7.7735,-7.7745,-7.7811,-7.7832,-7.7858,-7.7876,-7.7952,-7.7994,-7.7994,-7.8007,-7.8053,-7.8097,-7.8095,-7.8114,-7.8151,-7.8143,-7.7984,-7.7962,-7.794,-7.7919,-7.8156,-7.8156,-7.8309,-7.831,-7.8311]}]]